Weather History for West Palm Beach, FL

Change the Weather History Date:

Sunday, April 13, 2014

  Actual Average Record
Temperature  
Mean Temperature 78 °F 73 °F  
Max Temperature 82 °F 81 °F 92 °F (1965)
Min Temperature 74 °F 65 °F 45 °F (1918)
Degree Days  
Heating Degree Days 0 0  
Month to date heating degree days 0 0  
Since 1 July heating degree days 122 229  
Cooling Degree Days 13 8  
Month to date cooling degree days 122 101  
Year to date cooling degree days 670 529  
Growing Degree Days 28 (Base 50)    
Moisture  
Dew Point 67 °F    
Average Humidity 72    
Maximum Humidity 82    
Minimum Humidity 62    
Precipitation  
Precipitation 0.03 in 0.12 in 2.44 in (1920)
Month to date precipitation 0.41 1.73  
Year to date precipitation 14.29 12.27  
Snow  
Snow 0.00 in - - ()
Month to date snowfall 0.0  
Since 1 July snowfall 0.0  
Snow Depth 0.00 in    
Sea Level Pressure  
Sea Level Pressure 30.05 in    
Wind  
Wind Speed 17 mph (East)    
Max Wind Speed 23 mph    
Max Gust Speed 29 mph    
Visibility 10 miles    
Events Rain    
T = Trace of Precipitation, MM = Missing Value Source: NWS Daily Summary

Daily Weather History Graph

Daily Weather History Graph

Search for Another Location

Airport:

Trip Planner

Search our weather history database for the weather conditions in past years. The results will help you decide how hot, cold, wet, or windy it might be!

Date:

Astronomy

Apr. 13, 2014 Rise Set
Actual Time 6:58 AM EDT 7:43 PM EDT
Civil Twilight 6:35 AM EDT 8:07 PM EDT
Nautical Twilight 6:07 AM EDT 8:35 PM EDT
Astronomical Twilight 5:38 AM EDT 9:03 PM EDT
Moon 6:26 PM EDT (4/13) 5:47 AM EDT (4/13)
Length of Visible Light 13h 32m
Length of Day
12h 44m
Waxing Gibbous, 97% of the Moon is Illuminated
Apr 13
Waxing Gibbous
Apr 15
Full
Apr 22
Last Quarter
Apr 29
New
May 6
First Quarter

Hourly Weather History & Observations

Time (EDT) Temp. Heat Index Dew Point Humidity Pressure Visibility Wind Dir Wind Speed Gust Speed Precip Events Conditions
12:53 AM 75.0 °F - 64.9 °F 71% 30.09 in 10.0 mi East 16.1 mph - 0.00 in Rain Light Rain
1:53 AM 75.0 °F - 64.0 °F 69% 30.07 in 10.0 mi East 13.8 mph - 0.00 in   Scattered Clouds
2:53 AM 75.0 °F - 64.0 °F 69% 30.06 in 10.0 mi ENE 12.7 mph - N/A   Mostly Cloudy
3:53 AM 73.9 °F - 63.0 °F 68% 30.05 in 10.0 mi ENE 12.7 mph - N/A   Mostly Cloudy
4:53 AM 75.0 °F - 63.0 °F 66% 30.05 in 10.0 mi ENE 10.4 mph - N/A   Mostly Cloudy
5:53 AM 75.0 °F - 64.0 °F 69% 30.06 in 10.0 mi East 12.7 mph - N/A   Mostly Cloudy
6:28 AM 75.0 °F - 64.9 °F 71% 30.06 in 10.0 mi ENE 11.5 mph - N/A   Mostly Cloudy
6:53 AM 75.0 °F - 64.9 °F 71% 30.06 in 10.0 mi ENE 12.7 mph - N/A   Mostly Cloudy
7:53 AM 75.0 °F - 66.0 °F 73% 30.07 in 10.0 mi ENE 15.0 mph - N/A   Mostly Cloudy
8:53 AM 75.0 °F - 68.0 °F 79% 30.09 in 10.0 mi ENE 18.4 mph 23.0 mph 0.01 in   Mostly Cloudy
9:53 AM 77.0 °F - 66.9 °F 71% 30.10 in 10.0 mi ENE 12.7 mph - N/A   Mostly Cloudy
10:53 AM 77.0 °F - 66.9 °F 71% 30.10 in 10.0 mi East 20.7 mph 26.5 mph N/A   Mostly Cloudy
11:53 AM 77.0 °F - 69.1 °F 76% 30.09 in 7.0 mi East 20.7 mph - 0.01 in   Mostly Cloudy
12:53 PM 79.0 °F - 66.9 °F 66% 30.08 in 10.0 mi East 20.7 mph - N/A   Mostly Cloudy
1:53 PM 80.1 °F 82.3 °F 66.9 °F 64% 30.06 in 10.0 mi East 23.0 mph - N/A   Mostly Cloudy
2:53 PM 79.0 °F - 66.9 °F 66% 30.04 in 10.0 mi East 17.3 mph 27.6 mph N/A   Mostly Cloudy
3:53 PM 79.0 °F - 66.9 °F 66% 30.03 in 10.0 mi East 19.6 mph - N/A   Mostly Cloudy
4:53 PM 78.1 °F - 68.0 °F 71% 30.01 in 10.0 mi East 20.7 mph 26.5 mph N/A   Mostly Cloudy
5:53 PM 79.0 °F - 68.0 °F 69% 30.01 in 10.0 mi East 16.1 mph 25.3 mph N/A   Mostly Cloudy
6:53 PM 77.0 °F - 68.0 °F 74% 30.01 in 10.0 mi East 18.4 mph - N/A   Mostly Cloudy
7:53 PM 75.9 °F - 68.0 °F 76% 30.01 in 10.0 mi East 17.3 mph - N/A   Mostly Cloudy
8:53 PM 75.9 °F - 68.0 °F 76% 30.01 in 10.0 mi ENE 16.1 mph 24.2 mph N/A   Mostly Cloudy
9:53 PM 77.0 °F - 68.0 °F 74% 30.01 in 10.0 mi East 16.1 mph - 0.00 in   Mostly Cloudy
10:53 PM 77.0 °F - 69.1 °F 76% 30.01 in 10.0 mi East 16.1 mph - N/A   Mostly Cloudy
11:11 PM 75.9 °F - 69.1 °F 79% 30.01 in 10.0 mi East 15.0 mph - 0.00 in Rain Light Rain
11:34 PM 75.0 °F - 70.0 °F 84% 30.01 in 10.0 mi East 13.8 mph - 0.01 in Rain Light Rain
11:53 PM 75.0 °F - 69.1 °F 82% 30.01 in 10.0 mi ESE 19.6 mph - 0.01 in   Overcast